Nashville, TN

5:38 AM CDT on May 29, 2017 (GMT -0500)
Nashville International

Weather History for KBNA - March, 2014

Change the Weather History Date:

Sunday, March 16, 2014

  Actual Average Record
Temperature  
Mean Temperature 45 °F 50 °F  
Max Temperature 55 °F 61 °F 83 °F (1945)
Min Temperature 34 °F 39 °F 19 °F (1970)
Degree Days  
Heating Degree Days 20    
Month to date heating degree days 299  
Since 1 July heating degree days 3484  
Cooling Degree Days 0    
Month to date cooling degree days 0  
Year to date cooling degree days 0  
Moisture  
Dew Point 43 °F    
Average Humidity 79    
Maximum Humidity 96    
Minimum Humidity 61    
Precipitation  
Precipitation 0.66 in 0.14 in 3.71 in (1919)
Month to date precipitation 3.12 2.09  
Year to date precipitation 10.82 9.78  
Snow  
Snow 0.00 in - 0.30 in (1896)
Month to date snowfall 0.1  
Since 1 July snowfall 1.5  
Snow Depth 0.00 in    
Sea Level Pressure  
Sea Level Pressure 29.78 in    
Wind  
Wind Speed 11 mph (NE)    
Max Wind Speed 22 mph    
Max Gust Speed 28 mph    
Visibility 5 miles    
Events Rain    
T = Trace of Precipitation, MM = Missing Value Source: NWS Daily Summary

Daily Weather History Graph

Daily Weather History Graph

Search for Another Location

Airport or City:

Trip Planner

Search our weather history database for the weather conditions in past years. The results will help you decide how hot, cold, wet, or windy it might be!

Date:

Astronomy

Mar. 16, 2014 Rise Set
Actual Time 6:56 AM CDT 6:55 PM CDT
Civil Twilight 6:30 AM CDT 7:20 PM CDT
Nautical Twilight 6:00 AM CDT 7:50 PM CDT
Astronomical Twilight 5:30 AM CDT 8:20 PM CDT
Moon 7:10 PM CDT (3/16) 6:39 AM CDT (3/16)
Length of Visible Light 12h 50m
Length of Day
11h 58m
Full, 100% of the Moon is Illuminated
Mar 16
Full
Mar 16
Full
Mar 23
Last Quarter
Mar 30
New
Apr 7
First Quarter

Hourly Weather History & Observations

Time (CDT) Temp. Windchill Dew Point Humidity Pressure Visibility Wind Dir Wind Speed Gust Speed Precip Events Conditions
12:53 AM 54.0 °F - 42.1 °F 64% 29.93 in 10.0 mi SSE 4.6 mph - N/A   Overcast
1:53 AM 55.0 °F - 42.1 °F 62% 29.92 in 10.0 mi East 3.5 mph - N/A   Overcast
2:53 AM 52.0 °F - 43.0 °F 71% 29.88 in 10.0 mi NNE 5.8 mph - N/A   Overcast
3:53 AM 51.1 °F - 41.0 °F 68% 29.84 in 10.0 mi NNE 3.5 mph - N/A   Overcast
4:53 AM 50.0 °F - 45.0 °F 83% 29.83 in 10.0 mi Calm Calm - 0.00 in Rain Light Rain
5:53 AM 50.0 °F - 46.0 °F 86% 29.82 in 8.0 mi SE 3.5 mph - 0.04 in Rain Light Rain
6:53 AM 50.0 °F - 48.0 °F 93% 29.83 in 4.0 mi Calm Calm - 0.13 in Rain Rain
7:39 AM 50.0 °F - 48.2 °F 94% 29.81 in 5.0 mi East 6.9 mph - 0.11 in Rain Light Rain
7:53 AM 50.0 °F - 48.0 °F 93% 29.80 in 4.0 mi East 6.9 mph - 0.14 in Rain Light Rain
8:24 AM 50.0 °F - 48.2 °F 94% 29.74 in 2.0 mi ENE 15.0 mph - 0.05 in Rain Rain
8:47 AM 51.8 °F - 50.0 °F 94% 29.76 in 3.0 mi NE 10.4 mph - 0.06 in   Overcast
8:53 AM 51.1 °F - 50.0 °F 96% 29.75 in 3.0 mi ENE 10.4 mph - 0.06 in Rain Light Rain
9:05 AM 51.8 °F - 50.0 °F 94% 29.76 in 3.0 mi ENE 10.4 mph - 0.00 in   Overcast
9:53 AM 52.0 °F - 50.0 °F 93% 29.75 in 3.0 mi East 12.7 mph 18.4 mph 0.00 in   Overcast
10:30 AM 51.8 °F - 50.0 °F 94% 29.73 in 2.5 mi NE 13.8 mph - 0.00 in Rain Light Rain
10:53 AM 51.1 °F - 50.0 °F 96% 29.73 in 2.0 mi ENE 11.5 mph - 0.01 in Rain Light Rain
11:53 AM 51.1 °F - 48.9 °F 92% 29.72 in 2.0 mi ENE 18.4 mph - 0.03 in Rain Light Rain
12:13 PM 50.0 °F - 48.2 °F 94% 29.72 in 1.5 mi NNE 18.4 mph 24.2 mph 0.03 in Rain Light Rain
12:53 PM 48.0 °F - 46.0 °F 93% 29.70 in 1.5 mi NE 16.1 mph 26.5 mph 0.07 in Rain Light Rain
1:53 PM 46.0 °F 39.3 °F 44.1 °F 93% 29.68 in 1.5 mi NE 16.1 mph 27.6 mph 0.05 in Rain Light Rain
2:53 PM 44.1 °F 37.4 °F 43.0 °F 96% 29.68 in 1.5 mi NNE 13.8 mph - 0.04 in Rain Light Rain
3:53 PM 43.0 °F 36.4 °F 41.0 °F 93% 29.71 in 1.5 mi NNE 12.7 mph - 0.03 in Rain Light Rain
4:53 PM 41.0 °F 33.1 °F 39.0 °F 93% 29.70 in 1.5 mi NNE 15.0 mph 25.3 mph 0.01 in Rain Light Rain
5:31 PM 39.2 °F 29.8 °F 37.4 °F 93% 29.72 in 8.0 mi North 18.4 mph 24.2 mph 0.00 in   Overcast
5:53 PM 39.9 °F 31.4 °F 37.9 °F 93% 29.75 in 10.0 mi NNE 16.1 mph 24.2 mph 0.00 in   Overcast
6:53 PM 37.9 °F 28.2 °F 35.1 °F 89% 29.78 in 7.0 mi NNE 18.4 mph - 0.00 in Rain Light Rain
7:36 PM 37.4 °F 28.2 °F 35.6 °F 93% 29.79 in 7.0 mi NNE 16.1 mph - 0.00 in   Overcast
7:53 PM 37.0 °F 28.1 °F 35.1 °F 93% 29.79 in 7.0 mi NNE 15.0 mph - 0.00 in   Overcast
8:04 PM 37.4 °F 28.2 °F 35.6 °F 93% 29.79 in 8.0 mi North 16.1 mph - N/A   Overcast
8:53 PM 36.0 °F 27.1 °F 34.0 °F 93% 29.81 in 9.0 mi North 13.8 mph - N/A   Overcast
9:53 PM 36.0 °F 26.3 °F 34.0 °F 93% 29.82 in 3.0 mi NNE 16.1 mph 20.7 mph 0.04 in Rain Light Rain
10:53 PM 35.1 °F 26.9 °F 33.1 °F 92% 29.83 in 10.0 mi NNE 11.5 mph - 0.01 in Rain Light Rain
11:53 PM 35.1 °F 25.9 °F 33.1 °F 92% 29.83 in 9.0 mi North 13.8 mph 20.7 mph 0.00 in   Overcast